#timestamp,LO_Frequency,Hit,StdDev 
1618840815.8,286046995.0,N
1618840835.7,286046995.7,N
1618840855.5,286046999.5,N
1618840875.3,286046997.5,N
1618840895.2,286046993.9,N
1618840915.0,286046992.6,N
1618840915.9,286046992.6,N
1618840935.8,286046993.8,N
1618840955.6,286046997.6,N
1618840975.4,286046997.9,N
1618840995.3,286046996.0,N
1618841015.1,286046993.4,N
1618841035.9,286046995.7,N
1618841055.7,286046996.1,N
1618841075.5,286046994.2,N
1618841095.4,286046995.7,N
1618841115.2,286046997.2,N
1618841135.0,286046998.8,N
1618841135.9,286046998.8,N
1618841155.8,286046995.3,N
1618841175.6,286046992.3,N
1618841195.5,286046990.3,Y
1618841215.3,286046995.9,P
1618841235.1,286046999.6,N
1618841255.9,286046997.4,N
1618841275.7,286046996.4,N
1618841295.5,286046998.9,N
1618841315.4,286046998.7,N
1618841335.2,286046999.6,N
1618841355.1,286046997.5,N
1618841356.0,286046997.5,N
1618841375.8,286046995.0,Y
1618841395.6,286046998.6,P
1618841415.5,286046999.4,N
1618841435.3,286047000.7,N
1618841455.2,286047002.3,N
1618841475.9,286046999.7,N
1618841495.7,286046996.7,N
1618841515.6,286046995.1,N
1618841535.4,286046996.3,N
1618841555.2,286046996.6,N
1618841575.1,286047002.3,N
1618841576.0,286047002.3,N
1618841595.8,286046999.7,N
1618841615.7,286046998.7,N
1618841635.5,286046997.6,N
1618841655.3,286046993.3,Y
1618841675.2,286046995.0,P
1618841695.0,286046996.6,N
1618841695.9,286046996.6,N
1618841715.8,286046998.5,N
1618841735.6,286047000.5,N
1618841755.4,286047002.7,N
1618841775.3,286047001.2,N
1618841795.1,286046998.7,N
1618841815.8,286046996.7,N
1618841835.7,286046998.4,N
1618841855.5,286046996.5,N
1618841875.4,286046994.9,N
1618841895.2,286046996.8,N
1618841915.0,286046995.3,N
1618841915.9,286046995.3,N
1618841935.8,286046999.3,N
1618841955.6,286047000.5,N
1618841975.5,286047002.0,N
1618841995.3,286047004.2,N
1618842015.1,286046998.8,N
1618842035.9,286046998.9,N
1618842055.7,286046998.4,N
1618842075.5,286046996.8,N
1618842095.4,286046996.9,N
1618842115.2,286046997.3,N
1618842135.1,286046996.8,N
1618842136.0,286046996.8,N
1618842155.8,286046996.5,N
1618842175.6,286046998.2,N
1618842195.5,286047000.7,N
1618842215.3,286047001.2,N
1618842235.2,286047000.5,N
1618842255.9,286046999.5,N
1618842275.7,286046998.2,N
1618842295.6,286046996.7,N
1618842315.4,286046995.8,N
1618842335.2,286046996.2,N
1618842355.1,286046995.9,N
1618842356.0,286046995.9,N
1618842375.8,286046996.7,N
1618842395.7,286046996.8,N
1618842415.5,286046995.2,N
1618842435.3,286046997.9,N
1618842455.2,286046995.0,N
1618842475.9,286046995.5,N
1618842495.7,286046995.4,N
1618842515.6,286046995.6,N
1618842535.4,286046997.7,N
1618842555.3,286046999.0,N
1618842575.1,286046999.6,N
1618842576.0,286046999.6,N
1618842595.8,286046997.9,N
1618842615.7,286046993.4,Y
1618842635.5,286046997.8,P
1618842655.3,286046995.0,P
1618842675.2,286046995.0,P
1618842695.0,286046995.5,Y
1618842695.9,286046995.5,P
1618842715.8,286046998.1,P
1618842735.6,286046998.7,N
1618842755.4,286046998.2,N
1618842775.3,286046996.7,N
1618842795.1,286046999.6,N
1618842815.8,286046998.5,N
1618842835.7,286047000.5,N
1618842855.5,286047000.5,N
1618842875.4,286047000.4,N
1618842895.2,286046998.2,N
1618842915.0,286046998.7,N
1618842915.9,286046998.7,N
1618842935.8,286046997.0,N
1618842955.6,286046998.3,N
1618842975.4,286046997.7,N
1618842995.3,286046998.9,N
1618843015.1,286046998.5,N
1618843035.9,286046999.6,N
1618843055.7,286046998.9,N
1618843075.5,286046999.7,N
1618843095.4,286047000.9,N
1618843115.2,286046999.8,N
1618843135.0,286046999.7,N
1618843136.0,286046999.7,N
1618843155.8,286047002.3,N
1618843175.6,286047002.8,N
1618843195.5,286046998.5,N
1618843215.3,286046997.2,N
1618843235.1,286047000.4,N
1618843255.9,286047003.6,N
1618843275.7,286047006.0,Y
1618843295.6,286047006.1,P
1618843315.4,286047005.0,N
1618843335.2,286047004.2,N
1618843355.1,286047002.1,N
1618843356.0,286047002.1,N
1618843375.8,286047001.3,N
1618843395.6,286047004.3,N
1618843415.5,286047001.8,N
1618843435.3,286047003.5,N
1618843455.2,286047005.5,N
1618843475.9,286047004.6,N
1618843495.7,286047005.2,N
1618843515.6,286047005.2,N
1618843535.4,286047005.8,Y
1618843555.2,286047000.9,P
1618843575.1,286047000.3,N
1618843576.0,286047000.3,N
1618843595.8,286046999.9,N
1618843615.7,286047000.2,N
1618843635.5,286047002.7,N
1618843655.3,286047005.7,Y
1618843675.2,286047005.2,P
1618843695.0,286047006.0,N
1618843695.9,286047006.0,N
1618843715.8,286047002.5,N
1618843735.6,286046998.3,N
1618843755.4,286046998.6,N
1618843775.3,286047000.3,N
1618843795.1,286047000.9,N
1618843815.8,286047001.6,N
1618843835.7,286047000.4,N
1618843855.5,286047003.4,N
1618843875.4,286047005.8,N
1618843895.2,286047005.9,N
1618843915.0,286047003.3,N
1618843915.9,286047003.3,N
1618843935.8,286047004.5,N
1618843955.6,286047001.4,N
1618843975.7,286047004.0,N
1618843995.5,286047006.0,N
1618844015.4,286047003.6,N
1618844035.2,286047003.4,N
1618844055.1,286047005.0,N
1618844056.0,286047005.0,N
1618844075.8,286047003.0,N
1618844095.6,286047004.3,N
1618844115.5,286047000.0,N
1618844135.3,286046998.1,N
1618844155.1,286046997.1,N
1618844175.9,286046996.1,N
1618844195.7,286046996.2,N
1618844215.6,286046999.5,N
1618844235.4,286047000.1,N
1618844255.2,286047002.7,N
1618844275.1,286046998.3,N
1618844276.0,286046998.3,N
1618844295.8,286047000.8,N
1618844315.7,286046999.0,N
1618844335.5,286046997.7,N
1618844355.3,286046999.5,N
1618844375.2,286046998.3,N
1618844395.0,286046998.6,N
1618844395.9,286046998.6,N
